WGN618 KSLC-KMSP

Flight info

Callsign WGN618
Flight time 1h 47m
Altitude 35000
Route RUGGD3 OCS KD75U KP84A UFFDA TORGY4
Aircraft MD1F/H-SDE1E2E3FGHIJ2J3J4J5M1RWXY/LB1D1

Departure

Time 2026-05-05 15:32
Airport Salt Lake City International Airport (KSLC)

Arrival

Time 2026-05-05 17:20
Airport Minneapolis–Saint Paul International Airport / Wold–Chamberlain Field (KMSP)
Time Latitude Longitude Altitude Speed Heading
2026-05-05 15:17 40.80249 -111.98322 4232 ft 0 kts 354°
2026-05-05 15:20 40.80243 -111.98322 4232 ft 3 kts 354°
2026-05-05 15:20 40.80222 -111.98319 4232 ft 1 kts 355°
2026-05-05 15:20 40.80210 -111.98318 4232 ft 1 kts
2026-05-05 15:20 40.80203 -111.98319 4232 ft 1 kts 13°
2026-05-05 15:21 40.80194 -111.98323 4232 ft 1 kts 32°
2026-05-05 15:21 40.80188 -111.98328 4231 ft 1 kts 47°
2026-05-05 15:21 40.80183 -111.98336 4231 ft 1 kts 63°
2026-05-05 15:21 40.80181 -111.98345 4231 ft 1 kts 78°
2026-05-05 15:22 40.80180 -111.98354 4231 ft 0 kts 84°
2026-05-05 15:22 40.80180 -111.98355 4231 ft 0 kts 84°
2026-05-05 15:26 40.80180 -111.98354 4231 ft 0 kts 84°
2026-05-05 15:27 40.80181 -111.98329 4231 ft 3 kts 86°
2026-05-05 15:27 40.80182 -111.98282 4232 ft 6 kts 90°
2026-05-05 15:27 40.80183 -111.98215 4233 ft 8 kts 85°
2026-05-05 15:27 40.80190 -111.98126 4234 ft 11 kts 89°
2026-05-05 15:28 40.80127 -111.98047 4234 ft 14 kts 170°
2026-05-05 15:28 40.80053 -111.97965 4234 ft 15 kts 96°
2026-05-05 15:28 40.80090 -111.97849 4236 ft 13 kts 16°
2026-05-05 15:28 40.80187 -111.97852 4237 ft 13 kts 358°
2026-05-05 15:29 40.80285 -111.97842 4237 ft 14 kts 12°
2026-05-05 15:29 40.80389 -111.97823 4237 ft 15 kts 357°
2026-05-05 15:29 40.80509 -111.97835 4234 ft 18 kts 355°
2026-05-05 15:29 40.80638 -111.97852 4234 ft 19 kts 354°
2026-05-05 15:30 40.80695 -111.97855 4234 ft 0 kts
2026-05-05 15:30 40.80696 -111.97855 4234 ft 0 kts
2026-05-05 15:30 40.80698 -111.97855 4234 ft 0 kts
2026-05-05 15:31 40.80708 -111.97852 4234 ft 3 kts 18°
2026-05-05 15:31 40.80733 -111.97823 4234 ft 6 kts 60°
2026-05-05 15:31 40.80734 -111.97749 4235 ft 9 kts 114°
2026-05-05 15:31 40.80664 -111.97690 4235 ft 13 kts 168°
2026-05-05 15:32 40.80471 -111.97662 4238 ft 52 kts 174°
2026-05-05 15:32 40.79789 -111.97582 4234 ft 128 kts 174°
2026-05-05 15:32 40.78675 -111.97461 4249 ft 183 kts 172°
2026-05-05 15:32 40.77475 -111.97339 4931 ft 176 kts 176°
2026-05-05 15:33 40.76238 -111.97253 5555 ft 182 kts 176°
2026-05-05 15:33 40.74948 -111.97163 6221 ft 185 kts 176°
2026-05-05 15:33 40.73680 -111.97454 6726 ft 187 kts 213°
2026-05-05 15:33 40.72842 -111.98755 7269 ft 191 kts 248°
2026-05-05 15:34 40.72487 -112.00530 7533 ft 211 kts 260°
2026-05-05 15:34 40.72327 -112.02578 7716 ft 239 kts 266°
2026-05-05 15:34 40.72757 -112.04765 8087 ft 260 kts 304°
2026-05-05 15:34 40.74056 -112.06459 8645 ft 276 kts 332°
2026-05-05 15:35 40.75865 -112.07375 9413 ft 286 kts 347°
2026-05-05 15:35 40.77828 -112.07826 10292 ft 292 kts 357°
2026-05-05 15:35 40.79942 -112.07779 10756 ft 317 kts
2026-05-05 15:35 40.82228 -112.07293 11073 ft 345 kts 12°
2026-05-05 15:36 40.84674 -112.06601 11435 ft 372 kts 11°
2026-05-05 15:36 40.87217 -112.05926 12271 ft 384 kts 11°
2026-05-05 15:36 40.89843 -112.05274 13348 ft 388 kts 11°
2026-05-05 15:36 40.92498 -112.04630 14379 ft 393 kts 11°
2026-05-05 15:37 40.95198 -112.03982 15387 ft 398 kts 11°
2026-05-05 15:37 40.97943 -112.03324 16317 ft 405 kts 11°
2026-05-05 15:37 41.00686 -112.02500 17194 ft 410 kts 20°
2026-05-05 15:37 41.03266 -112.00842 18058 ft 413 kts 34°
2026-05-05 15:38 41.05462 -111.98389 18847 ft 419 kts 48°
2026-05-05 15:38 41.07153 -111.95252 19631 ft 426 kts 60°
2026-05-05 15:38 41.08438 -111.91745 20338 ft 433 kts 65°
2026-05-05 15:38 41.09657 -111.88080 21106 ft 439 kts 65°
2026-05-05 15:39 41.10920 -111.84356 21867 ft 445 kts 65°
2026-05-05 15:39 41.11975 -111.80492 22640 ft 452 kts 75°
2026-05-05 15:39 41.12454 -111.76368 23334 ft 459 kts 86°
2026-05-05 15:39 41.12299 -111.72109 24024 ft 467 kts 98°
2026-05-05 15:40 41.11555 -111.67929 24705 ft 473 kts 106°
2026-05-05 15:40 41.10508 -111.63748 25388 ft 479 kts 105°
2026-05-05 15:40 41.09424 -111.59545 26080 ft 484 kts 106°
2026-05-05 15:40 41.08320 -111.55225 26764 ft 489 kts 107°
2026-05-05 15:41 41.07265 -111.50977 27428 ft 494 kts 107°
2026-05-05 15:41 41.06214 -111.46641 28133 ft 497 kts 105°
2026-05-05 15:41 41.05412 -111.42158 28974 ft 494 kts 95°
2026-05-05 15:41 41.05119 -111.37543 29861 ft 490 kts 87°
2026-05-05 15:42 41.05302 -111.32963 30730 ft 485 kts 81°
2026-05-05 15:42 41.05710 -111.28445 31484 ft 483 kts 80°
2026-05-05 15:42 41.06144 -111.23925 32198 ft 482 kts 81°
2026-05-05 15:42 41.06559 -111.19339 32926 ft 481 kts 81°
2026-05-05 15:43 41.06954 -111.14726 33595 ft 479 kts 81°
2026-05-05 15:43 41.07343 -111.10125 34244 ft 477 kts 81°
2026-05-05 15:43 41.07883 -111.05386 34735 ft 473 kts 73°
2026-05-05 15:43 41.08866 -111.00885 34936 ft 469 kts 68°
2026-05-05 15:44 41.10045 -110.96560 34940 ft 468 kts 67°
2026-05-05 15:44 41.12462 -110.87527 34974 ft 473 kts 68°
2026-05-05 15:45 41.14839 -110.78466 34982 ft 477 kts 68°
2026-05-05 15:45 41.17190 -110.69464 34974 ft 479 kts 69°
2026-05-05 15:46 41.19501 -110.60232 34979 ft 482 kts 69°
2026-05-05 15:46 41.21837 -110.50827 34973 ft 482 kts 69°
2026-05-05 15:47 41.24253 -110.41122 34980 ft 484 kts 68°
2026-05-05 15:47 41.26586 -110.31786 34965 ft 485 kts 69°
2026-05-05 15:48 41.28835 -110.22848 34968 ft 487 kts 69°
2026-05-05 15:48 41.31100 -110.13834 34979 ft 489 kts 69°
2026-05-05 15:49 41.33485 -110.04411 34973 ft 491 kts 69°
2026-05-05 15:49 41.35934 -109.94731 34981 ft 492 kts 68°
2026-05-05 15:50 41.38439 -109.84906 34978 ft 493 kts 69°
2026-05-05 15:50 41.40915 -109.75230 34977 ft 494 kts 69°
2026-05-05 15:51 41.43421 -109.65408 34964 ft 496 kts 69°
2026-05-05 15:51 41.45803 -109.55483 34955 ft 499 kts 70°
2026-05-05 15:52 41.48204 -109.45498 34963 ft 500 kts 69°
2026-05-05 15:52 41.50641 -109.35498 34960 ft 500 kts 69°
2026-05-05 15:53 41.52959 -109.25970 35120 ft 502 kts 70°
2026-05-05 15:53 41.55325 -109.16328 35020 ft 500 kts 70°
2026-05-05 15:54 41.57709 -109.06616 34958 ft 501 kts 69°
2026-05-05 15:54 41.60497 -108.96946 34958 ft 501 kts 65°
2026-05-05 15:55 41.63521 -108.87282 34956 ft 504 kts 65°
2026-05-05 15:55 41.66435 -108.77890 34964 ft 504 kts 65°
2026-05-05 15:56 41.69426 -108.68201 34989 ft 504 kts 65°
2026-05-05 15:56 41.72425 -108.58521 34977 ft 505 kts 65°
2026-05-05 15:57 41.75425 -108.48869 34984 ft 506 kts 65°
2026-05-05 15:57 41.78391 -108.39362 34987 ft 508 kts 65°
2026-05-05 15:58 41.81305 -108.30039 34977 ft 509 kts 65°
2026-05-05 15:58 41.84259 -108.20618 34981 ft 511 kts 65°
2026-05-05 15:59 41.87211 -108.11234 34974 ft 513 kts 65°
2026-05-05 15:59 41.90285 -108.01509 34981 ft 513 kts 65°
2026-05-05 16:00 41.93346 -107.91836 34956 ft 513 kts 65°
2026-05-05 16:00 41.96298 -107.81958 34966 ft 515 kts 66°
2026-05-05 16:01 41.99206 -107.72119 34956 ft 516 kts 66°
2026-05-05 16:01 42.02055 -107.62545 34957 ft 517 kts 66°
2026-05-05 16:02 42.04960 -107.52828 34950 ft 519 kts 66°
2026-05-05 16:02 42.07895 -107.43024 34952 ft 521 kts 66°
2026-05-05 16:03 42.10826 -107.33264 34947 ft 522 kts 66°
2026-05-05 16:03 42.13668 -107.23824 34941 ft 522 kts 66°
2026-05-05 16:04 42.16546 -107.14281 34925 ft 522 kts 66°
2026-05-05 16:04 42.19453 -107.04740 34938 ft 523 kts 65°
2026-05-05 16:05 42.22411 -106.95000 34935 ft 525 kts 66°
2026-05-05 16:05 42.25413 -106.85035 34929 ft 528 kts 67°
2026-05-05 16:06 42.28302 -106.74892 34942 ft 530 kts 67°
2026-05-05 16:06 42.31251 -106.64582 34935 ft 531 kts 66°
2026-05-05 16:07 42.34230 -106.54222 34942 ft 534 kts 67°
2026-05-05 16:07 42.37219 -106.43874 34943 ft 535 kts 67°
2026-05-05 16:08 42.40130 -106.33803 34938 ft 536 kts 68°
2026-05-05 16:08 42.42959 -106.24128 34933 ft 537 kts 68°
2026-05-05 16:09 42.45958 -106.13804 34943 ft 539 kts 67°
2026-05-05 16:09 42.48864 -106.03875 34929 ft 540 kts 67°
2026-05-05 16:10 42.51709 -105.93961 34930 ft 542 kts 68°
2026-05-05 16:10 42.54489 -105.83593 34931 ft 544 kts 68°
2026-05-05 16:11 42.57288 -105.73284 34945 ft 545 kts 68°
2026-05-05 16:12 42.63060 -105.52247 34966 ft 547 kts 68°
2026-05-05 16:13 42.70433 -105.25562 34997 ft 547 kts 68°
2026-05-05 16:13 42.73303 -105.15253 35002 ft 548 kts 68°
2026-05-05 16:14 42.79230 -104.94082 35007 ft 551 kts 68°
2026-05-05 16:15 42.84899 -104.72463 35009 ft 552 kts 70°
2026-05-05 16:16 42.90650 -104.50492 35016 ft 556 kts 69°
2026-05-05 16:17 42.95048 -104.33821 35009 ft 557 kts 70°
2026-05-05 16:18 42.99215 -104.18199 34989 ft 557 kts 69°
2026-05-05 16:19 43.03487 -104.02085 34970 ft 559 kts 68°
2026-05-05 16:19 43.07946 -103.85467 34965 ft 561 kts 69°
2026-05-05 16:20 43.13380 -103.63659 34985 ft 562 kts 69°
2026-05-05 16:22 43.20586 -103.34960 34995 ft 564 kts 70°
2026-05-05 16:23 43.26246 -103.12582 34965 ft 563 kts 70°
2026-05-05 16:23 43.30379 -102.96345 34977 ft 564 kts 68°
2026-05-05 16:24 43.33150 -102.85550 34989 ft 565 kts 68°
2026-05-05 16:25 43.37158 -102.69418 35000 ft 566 kts 71°
2026-05-05 16:25 43.41034 -102.52957 35011 ft 566 kts 70°
2026-05-05 16:26 43.46193 -102.31427 35002 ft 567 kts 69°
2026-05-05 16:27 43.48823 -102.20630 35013 ft 568 kts 71°
2026-05-05 16:27 43.51454 -102.09560 35002 ft 568 kts 69°
2026-05-05 16:28 43.54265 -101.98010 35015 ft 568 kts 69°
2026-05-05 16:28 43.57087 -101.86409 34986 ft 569 kts 70°
2026-05-05 16:29 43.59917 -101.74899 34998 ft 569 kts 69°
2026-05-05 16:29 43.62715 -101.63132 35000 ft 569 kts 70°
2026-05-05 16:30 43.65380 -101.51230 35000 ft 570 kts 71°
2026-05-05 16:30 43.68038 -101.39419 35002 ft 570 kts 69°
2026-05-05 16:31 43.70660 -101.27857 34996 ft 571 kts 70°
2026-05-05 16:31 43.73203 -101.16793 34988 ft 570 kts 70°
2026-05-05 16:32 43.75670 -101.06043 34980 ft 571 kts 69°
2026-05-05 16:32 43.78291 -100.94682 34981 ft 572 kts 69°
2026-05-05 16:33 43.80944 -100.83205 35005 ft 571 kts 69°
2026-05-05 16:33 43.83596 -100.71795 35006 ft 571 kts 69°
2026-05-05 16:34 43.86309 -100.60220 35013 ft 571 kts 70°
2026-05-05 16:34 43.88820 -100.48836 35015 ft 572 kts 71°
2026-05-05 16:35 43.91337 -100.37270 35025 ft 572 kts 70°
2026-05-05 16:35 43.93819 -100.26174 35008 ft 573 kts 70°
2026-05-05 16:36 43.96366 -100.14605 35007 ft 574 kts 70°
2026-05-05 16:36 43.99012 -100.02904 35013 ft 573 kts 70°
2026-05-05 16:37 44.01374 -99.90965 35007 ft 575 kts 77°
2026-05-05 16:37 44.03010 -99.78527 35005 ft 575 kts 78°
2026-05-05 16:38 44.04662 -99.65984 34993 ft 575 kts 78°
2026-05-05 16:38 44.06372 -99.53425 35000 ft 575 kts 78°
2026-05-05 16:39 44.08110 -99.40801 35002 ft 575 kts 77°
2026-05-05 16:39 44.09788 -99.28664 34975 ft 574 kts 77°
2026-05-05 16:40 44.11421 -99.16940 34983 ft 574 kts 77°
2026-05-05 16:40 44.13123 -99.04813 34978 ft 575 kts 78°
2026-05-05 16:41 44.14846 -98.92650 34978 ft 576 kts 77°
2026-05-05 16:41 44.16668 -98.79903 34979 ft 574 kts 78°
2026-05-05 16:42 44.18297 -98.67348 34977 ft 574 kts 79°
2026-05-05 16:42 44.19849 -98.54531 34978 ft 575 kts 79°
2026-05-05 16:43 44.21444 -98.41720 34980 ft 574 kts 78°
2026-05-05 16:43 44.22978 -98.29628 34975 ft 573 kts 79°
2026-05-05 16:44 44.24472 -98.17917 34977 ft 573 kts 79°
2026-05-05 16:44 44.25973 -98.06242 34980 ft 573 kts 79°
2026-05-05 16:45 44.27640 -97.93521 34976 ft 572 kts 78°
2026-05-05 16:45 44.29227 -97.81158 34982 ft 572 kts 77°
2026-05-05 16:46 44.30831 -97.69038 34969 ft 572 kts 78°
2026-05-05 16:46 44.32353 -97.57014 34969 ft 573 kts 79°
2026-05-05 16:47 44.33705 -97.44727 34975 ft 574 kts 79°
2026-05-05 16:47 44.35070 -97.32555 34961 ft 573 kts 79°
2026-05-05 16:48 44.36409 -97.20940 34959 ft 572 kts 79°
2026-05-05 16:48 44.37894 -97.08192 34951 ft 574 kts 79°
2026-05-05 16:49 44.39424 -96.95194 34965 ft 574 kts 79°
2026-05-05 16:49 44.40957 -96.82216 34963 ft 574 kts 79°
2026-05-05 16:50 44.42501 -96.69280 34967 ft 572 kts 79°
2026-05-05 16:50 44.44070 -96.56340 34957 ft 573 kts 79°
2026-05-05 16:51 44.45594 -96.43528 34940 ft 572 kts 79°
2026-05-05 16:51 44.46929 -96.31032 34933 ft 572 kts 79°
2026-05-05 16:52 44.48270 -96.19022 34926 ft 573 kts 80°
2026-05-05 16:52 44.49387 -96.06793 34931 ft 574 kts 88°
2026-05-05 16:53 44.49081 -95.94134 34947 ft 574 kts 96°
2026-05-05 16:53 44.48379 -95.81158 34941 ft 575 kts 94°
2026-05-05 16:54 44.47818 -95.68237 34953 ft 575 kts 94°
2026-05-05 16:54 44.47245 -95.55113 34958 ft 574 kts 94°
2026-05-05 16:55 44.46706 -95.42136 34111 ft 583 kts 93°
2026-05-05 16:55 44.46441 -95.35763 33279 ft 588 kts 93°
2026-05-05 16:55 44.46185 -95.29560 32444 ft 594 kts 95°
2026-05-05 16:56 44.45939 -95.23232 31503 ft 600 kts 91°
2026-05-05 16:56 44.46125 -95.16641 30451 ft 605 kts 83°
2026-05-05 16:56 44.46938 -95.10098 29191 ft 609 kts 73°
2026-05-05 16:56 44.48272 -95.03812 27963 ft 609 kts 66°
2026-05-05 16:57 44.50052 -94.97521 26722 ft 608 kts 64°
2026-05-05 16:57 44.51868 -94.91215 25630 ft 606 kts 66°
2026-05-05 16:57 44.53510 -94.84785 24335 ft 590 kts 68°
2026-05-05 16:57 44.54919 -94.78737 23141 ft 574 kts 69°
2026-05-05 16:58 44.56133 -94.73294 22108 ft 557 kts 70°
2026-05-05 16:58 44.57298 -94.68063 20999 ft 543 kts 69°
2026-05-05 16:58 44.58444 -94.63000 19829 ft 525 kts 69°
2026-05-05 16:58 44.59537 -94.58277 18395 ft 508 kts 68°
2026-05-05 16:59 44.60624 -94.53642 16962 ft 491 kts 68°
2026-05-05 16:59 44.61680 -94.49087 15485 ft 474 kts 69°
2026-05-05 16:59 44.62664 -94.44801 14387 ft 456 kts 69°
2026-05-05 16:59 44.63658 -94.40520 14677 ft 457 kts 68°
2026-05-05 17:00 44.64673 -94.36193 14724 ft 461 kts 69°
2026-05-05 17:00 44.65644 -94.31928 14595 ft 437 kts 70°
2026-05-05 17:00 44.66523 -94.27921 14509 ft 409 kts 70°
2026-05-05 17:00 44.67358 -94.24148 14447 ft 390 kts 69°
2026-05-05 17:01 44.68181 -94.20508 14160 ft 377 kts 69°
2026-05-05 17:01 44.68961 -94.17088 13959 ft 365 kts 69°
2026-05-05 17:01 44.69743 -94.13633 13767 ft 362 kts 69°
2026-05-05 17:01 44.70517 -94.10197 13484 ft 359 kts 69°
2026-05-05 17:02 44.71281 -94.06821 13202 ft 356 kts 69°
2026-05-05 17:02 44.72029 -94.03471 12932 ft 354 kts 69°
2026-05-05 17:02 44.72761 -94.00155 12684 ft 352 kts 69°
2026-05-05 17:02 44.73493 -93.96845 12464 ft 351 kts 69°
2026-05-05 17:03 44.74233 -93.93524 12301 ft 352 kts 69°
2026-05-05 17:03 44.74986 -93.90173 12052 ft 350 kts 69°
2026-05-05 17:03 44.75720 -93.86910 11797 ft 347 kts 69°
2026-05-05 17:03 44.76456 -93.83636 11403 ft 340 kts 69°
2026-05-05 17:04 44.77144 -93.80517 11154 ft 324 kts 69°
2026-05-05 17:04 44.77788 -93.77586 10984 ft 307 kts 69°
2026-05-05 17:04 44.78421 -93.74740 10935 ft 297 kts 69°
2026-05-05 17:04 44.79052 -93.71960 10745 ft 300 kts 69°
2026-05-05 17:05 44.79687 -93.69129 10537 ft 298 kts 69°
2026-05-05 17:05 44.80298 -93.66335 10386 ft 296 kts 69°
2026-05-05 17:05 44.80901 -93.63559 10218 ft 294 kts 69°
2026-05-05 17:05 44.81504 -93.60781 10062 ft 294 kts 69°
2026-05-05 17:06 44.82114 -93.58004 9888 ft 294 kts 69°
2026-05-05 17:06 44.82726 -93.55228 9713 ft 294 kts 69°
2026-05-05 17:06 44.83342 -93.52439 9537 ft 293 kts 69°
2026-05-05 17:06 44.83947 -93.49695 9372 ft 292 kts 69°
2026-05-05 17:07 44.84554 -93.46938 9202 ft 292 kts 69°
2026-05-05 17:07 44.84964 -93.44170 9059 ft 293 kts 85°
2026-05-05 17:07 44.84753 -93.41301 8849 ft 295 kts 108°
2026-05-05 17:07 44.83885 -93.38663 8604 ft 292 kts 122°
2026-05-05 17:08 44.82700 -93.36175 8393 ft 278 kts 126°
2026-05-05 17:08 44.81517 -93.33835 8208 ft 270 kts 126°
2026-05-05 17:08 44.80466 -93.31676 8093 ft 261 kts 124°
2026-05-05 17:08 44.79501 -93.29568 8047 ft 256 kts 122°
2026-05-05 17:09 44.78549 -93.27413 8016 ft 255 kts 124°
2026-05-05 17:09 44.77551 -93.25339 7915 ft 256 kts 128°
2026-05-05 17:09 44.76460 -93.23312 7552 ft 256 kts 130°
2026-05-05 17:09 44.75351 -93.21365 7227 ft 251 kts 129°
2026-05-05 17:10 44.74249 -93.19463 7080 ft 248 kts 129°
2026-05-05 17:10 44.73157 -93.17561 7054 ft 251 kts 130°
2026-05-05 17:10 44.72057 -93.15610 7030 ft 251 kts 130°
2026-05-05 17:10 44.70961 -93.13654 7015 ft 251 kts 129°
2026-05-05 17:11 44.69869 -93.11701 7008 ft 252 kts 128°
2026-05-05 17:11 44.68781 -93.09763 6998 ft 251 kts 129°
2026-05-05 17:11 44.67681 -93.07809 6995 ft 251 kts 130°
2026-05-05 17:11 44.66591 -93.05878 6994 ft 251 kts 129°
2026-05-05 17:12 44.65474 -93.03895 6987 ft 251 kts 128°
2026-05-05 17:12 44.64431 -93.01917 6966 ft 251 kts 117°
2026-05-05 17:12 44.63910 -92.99479 7027 ft 248 kts 90°
2026-05-05 17:12 44.64267 -92.97062 6784 ft 242 kts 57°
2026-05-05 17:13 44.65411 -92.95270 6477 ft 227 kts 32°
2026-05-05 17:13 44.66756 -92.94055 6154 ft 213 kts 25°
2026-05-05 17:13 44.68074 -92.92976 6062 ft 206 kts 26°
2026-05-05 17:13 44.69423 -92.92191 6056 ft 196 kts
2026-05-05 17:14 44.70851 -92.92162 5828 ft 198 kts 342°
2026-05-05 17:14 44.72104 -92.92976 5517 ft 184 kts 322°
2026-05-05 17:14 44.73158 -92.94139 5262 ft 185 kts 316°
2026-05-05 17:14 44.74140 -92.95338 4990 ft 185 kts 317°
2026-05-05 17:15 44.75134 -92.96513 4723 ft 185 kts 319°
2026-05-05 17:15 44.76130 -92.97628 4433 ft 176 kts 320°
2026-05-05 17:15 44.77102 -92.98566 4202 ft 164 kts 321°
2026-05-05 17:15 44.77946 -92.99569 4142 ft 153 kts 311°
2026-05-05 17:16 44.78672 -93.00760 3996 ft 157 kts 307°
2026-05-05 17:16 44.79347 -93.02018 3770 ft 155 kts 305°
2026-05-05 17:16 44.79973 -93.03326 3572 ft 154 kts 303°
2026-05-05 17:16 44.80559 -93.04589 3361 ft 154 kts 303°
2026-05-05 17:17 44.81143 -93.05876 3165 ft 153 kts 302°
2026-05-05 17:17 44.81717 -93.07163 2944 ft 150 kts 302°
2026-05-05 17:17 44.82275 -93.08427 2750 ft 148 kts 302°
2026-05-05 17:17 44.82832 -93.09699 2537 ft 148 kts 301°
2026-05-05 17:18 44.83396 -93.10992 2326 ft 146 kts 301°
2026-05-05 17:18 44.83972 -93.12305 2122 ft 145 kts 301°
2026-05-05 17:18 44.84543 -93.13617 1884 ft 143 kts 301°
2026-05-05 17:18 44.85115 -93.14944 1692 ft 143 kts 301°
2026-05-05 17:19 44.85690 -93.16286 1486 ft 141 kts 301°
2026-05-05 17:19 44.86260 -93.17610 1284 ft 143 kts 301°
2026-05-05 17:19 44.86813 -93.18906 1114 ft 145 kts 301°
2026-05-05 17:19 44.87365 -93.20190 907 ft 149 kts 306°
2026-05-05 17:20 44.87900 -93.21380 827 ft 113 kts 300°
2026-05-05 17:20 44.88163 -93.21985 832 ft 36 kts 302°
2026-05-05 17:20 44.88209 -93.22110 833 ft 7 kts 285°
2026-05-05 17:20 44.88167 -93.22257 834 ft 24 kts 225°
2026-05-05 17:21 44.88029 -93.22452 836 ft 28 kts 226°
2026-05-05 17:21 44.87943 -93.22575 836 ft 15 kts 226°
2026-05-05 17:21 44.87878 -93.22690 835 ft 13 kts 260°
2026-05-05 17:22 44.88010 -93.22989 833 ft 20 kts 302°
2026-05-05 17:22 44.88084 -93.23162 834 ft 12 kts 301°
2026-05-05 17:22 44.88110 -93.23225 836 ft 4 kts 299°
2026-05-05 17:22 44.88128 -93.23241 836 ft 3 kts 354°
2026-05-05 17:23 44.88156 -93.23229 837 ft 4 kts 26°
2026-05-05 17:23 44.88185 -93.23206 837 ft 0 kts 31°
2026-05-05 17:23 44.88187 -93.23205 837 ft 0 kts 30°